Location: Dalton
(34.7700°N, 84.9700°W)
Time: 07:33:45
(UTC-04:00)

ISS - Pass Details

Date: 14 October 2017
Orbit: 401 x 408 km, 51.6° (Epoch: 25 October)

Event Time Altitude Azimuth Distance (km) Brightness Sun altitude
Rises 19:25:16 0° 324° (NW) 2,323 0.4 -4.7°
Reaches altitude 10° 19:27:44 10° 343° (NNW) 1,463 -0.9 -5.2°
Maximum altitude 19:30:13 20° 32° (NNE) 1,015 -2.2 -5.7°
Drops below altitude 10° 19:32:43 10° 82° (E) 1,461 -1.7 -6.3°
Enters shadow 19:33:09 - 86° (E) 1,601 -1.5 -6.3°
